Time,TemperatureF,DewpointF,PressureIn,WindDirection,WindDirectionDegrees,WindSpeedMPH,WindSpeedGustMPH,Humidity,HourlyPrecipIn,Conditions,Clouds,dailyrainin,SolarRadiationWatts/m^2,SoftwareType,DateUTC
2013-07-06 00:03:00,73.7,63.7,29.97,South,178,0.1,1.2,71,0.00,FEW,,0.00,0.0,WeatherDisplay:10.37,2013-07-06 05:03:00,
2013-07-06 00:08:00,73.7,64.1,29.97,South,185,1.4,5.8,72,0.00,FEW,,0.00,0.0,WeatherDisplay:10.37,2013-07-06 05:08:00,
2013-07-06 00:13:00,73.5,63.9,29.97,South,189,0.0,0.0,72,0.00,FEW,,0.00,0.0,WeatherDisplay:10.37,2013-07-06 05:13:00,
2013-07-06 00:18:00,73.5,63.9,29.97,South,187,0.0,0.0,72,0.00,FEW,,0.00,0.0,WeatherDisplay:10.37,2013-07-06 05:18:00,
2013-07-06 00:23:00,73.3,63.7,29.97,South,186,0.3,2.3,72,0.00,FEW,,0.00,0.0,WeatherDisplay:10.37,2013-07-06 05:23:00,
2013-07-06 00:28:00,73.2,63.6,29.97,South,185,0.0,0.0,72,0.00,FEW,,0.00,0.0,WeatherDisplay:10.37,2013-07-06 05:28:00,
2013-07-06 00:33:00,73.2,63.6,29.97,South,182,0.3,2.3,72,0.00,FEW,,0.00,0.0,WeatherDisplay:10.37,2013-07-06 05:33:00,
2013-07-06 00:38:00,73.0,63.4,29.97,South,182,0.0,0.0,72,0.00,FEW,,0.00,0.0,WeatherDisplay:10.37,2013-07-06 05:38:00,
2013-07-06 00:43:00,73.0,63.4,29.97,South,184,0.0,0.0,72,0.00,FEW,,0.00,0.0,WeatherDisplay:10.37,2013-07-06 05:43:00,
2013-07-06 00:48:00,72.8,63.2,29.98,South,184,0.0,0.0,72,0.00,FEW,,0.00,0.0,WeatherDisplay:10.37,2013-07-06 05:48:00,
2013-07-06 00:53:00,72.8,63.2,29.98,South,184,0.0,0.0,72,0.00,FEW,,0.00,0.0,WeatherDisplay:10.37,2013-07-06 05:53:00,
2013-07-06 00:58:00,72.7,63.1,29.98,South,184,0.1,2.3,72,0.00,FEW,,0.00,0.0,WeatherDisplay:10.37,2013-07-06 05:58:00,
2013-07-06 01:03:00,72.5,63.0,29.98,South,184,0.1,1.2,72,0.00,FEW,,0.00,0.0,WeatherDisplay:10.37,2013-07-06 06:03:00,
2013-07-06 01:08:00,72.5,63.0,29.98,South,184,0.0,0.0,72,0.00,FEW,,0.00,0.0,WeatherDisplay:10.37,2013-07-06 06:08:00,
2013-07-06 01:13:00,72.3,63.2,29.98,South,184,0.0,0.0,73,0.00,FEW,,0.00,0.0,WeatherDisplay:10.37,2013-07-06 06:13:00,
2013-07-06 01:18:00,72.3,62.8,29.98,South,184,0.0,0.0,72,0.00,FEW,,0.00,0.0,WeatherDisplay:10.37,2013-07-06 06:18:00,
2013-07-06 01:23:00,72.3,62.8,29.98,South,184,0.0,1.2,72,0.00,FEW,,0.00,0.0,WeatherDisplay:10.37,2013-07-06 06:23:00,
2013-07-06 01:28:00,72.3,62.8,29.98,South,184,0.0,0.0,72,0.00,FEW,,0.00,0.0,WeatherDisplay:10.37,2013-07-06 06:28:00,
2013-07-06 01:33:00,72.1,63.0,29.98,South,184,0.0,0.0,73,0.00,FEW,,0.00,0.0,WeatherDisplay:10.37,2013-07-06 06:33:00,
2013-07-06 01:38:00,72.1,63.0,29.98,South,184,0.0,0.0,73,0.00,FEW,,0.00,0.0,WeatherDisplay:10.37,2013-07-06 06:38:00,
2013-07-06 01:43:00,72.0,62.9,29.98,South,184,0.2,1.2,73,0.00,FEW,,0.00,0.0,WeatherDisplay:10.37,2013-07-06 06:43:00,
2013-07-06 01:48:00,72.0,62.9,29.97,South,184,0.1,0.0,73,0.00,FEW,,0.00,0.0,WeatherDisplay:10.37,2013-07-06 06:48:00,
2013-07-06 01:53:00,71.8,62.7,29.97,South,188,1.3,5.8,73,0.00,FEW,,0.00,0.0,WeatherDisplay:10.37,2013-07-06 06:53:00,
2013-07-06 01:58:00,71.8,62.7,29.97,South,188,0.0,0.0,73,0.00,FEW,,0.00,0.0,WeatherDisplay:10.37,2013-07-06 06:58:00,
2013-07-06 02:03:00,71.8,62.7,29.98,South,188,0.0,1.2,73,0.00,FEW,,0.00,0.0,WeatherDisplay:10.37,2013-07-06 07:03:00,
2013-07-06 02:08:00,71.8,62.7,29.98,South,186,0.0,1.2,73,0.00,FEW,,0.00,0.0,WeatherDisplay:10.37,2013-07-06 07:08:00,
2013-07-06 02:13:00,71.8,62.7,29.98,South,187,0.9,7.2,73,0.00,FEW,,0.00,0.0,WeatherDisplay:10.37,2013-07-06 07:13:00,
2013-07-06 02:18:00,71.8,62.7,29.98,South,190,0.1,1.2,73,0.00,FEW,,0.00,0.0,WeatherDisplay:10.37,2013-07-06 07:18:00,
2013-07-06 02:23:00,71.6,62.5,29.98,South,190,0.1,1.2,73,0.00,FEW,,0.00,0.0,WeatherDisplay:10.37,2013-07-06 07:23:00,
2013-07-06 02:28:00,71.5,62.8,29.98,South,170,2.1,6.9,74,0.00,FEW,,0.00,0.0,WeatherDisplay:10.37,2013-07-06 07:28:00,
2013-07-06 02:33:00,71.1,62.4,29.98,South,170,0.0,0.0,74,0.00,FEW,,0.00,0.0,WeatherDisplay:10.37,2013-07-06 07:33:00,
2013-07-06 02:38:00,70.9,62.2,29.98,South,170,0.0,1.2,74,0.00,FEW,,0.00,0.0,WeatherDisplay:10.37,2013-07-06 07:38:00,
2013-07-06 02:43:00,70.8,62.1,29.98,South,170,0.0,0.0,74,0.00,FEW,,0.00,0.0,WeatherDisplay:10.37,2013-07-06 07:43:00,
2013-07-06 02:48:00,70.6,61.9,29.97,South,170,0.0,0.0,74,0.00,FEW,,0.00,0.0,WeatherDisplay:10.37,2013-07-06 07:48:00,
2013-07-06 02:53:00,70.6,61.9,29.97,South,170,0.0,1.2,74,0.00,FEW,,0.00,0.0,WeatherDisplay:10.37,2013-07-06 07:53:00,
2013-07-06 02:58:00,70.4,61.7,29.97,South,170,0.0,0.0,74,0.00,FEW,,0.00,0.0,WeatherDisplay:10.37,2013-07-06 07:58:00,
2013-07-06 03:03:00,70.4,62.1,29.97,South,170,0.0,0.0,75,0.00,FEW,,0.00,0.0,WeatherDisplay:10.37,2013-07-06 08:03:00,
2013-07-06 03:08:00,70.3,62.0,29.97,South,170,0.0,0.0,75,0.00,FEW,,0.00,0.0,WeatherDisplay:10.37,2013-07-06 08:08:00,
2013-07-06 03:13:00,70.4,61.7,29.97,South,170,0.0,0.0,74,0.00,FEW,,0.00,0.0,WeatherDisplay:10.37,2013-07-06 08:13:00,
2013-07-06 03:18:00,70.4,61.7,29.97,South,177,1.3,6.0,74,0.00,FEW,,0.00,0.0,WeatherDisplay:10.37,2013-07-06 08:18:00,
2013-07-06 03:23:00,70.3,61.6,29.97,South,177,0.0,0.0,74,0.00,FEW,,0.00,0.0,WeatherDisplay:10.37,2013-07-06 08:23:00,
2013-07-06 03:28:00,70.3,61.6,29.97,South,177,0.0,0.0,74,0.00,FEW,,0.00,0.0,WeatherDisplay:10.37,2013-07-06 08:28:00,
2013-07-06 03:33:00,70.1,61.8,29.97,South,177,0.0,0.0,75,0.00,FEW,,0.00,0.0,WeatherDisplay:10.37,2013-07-06 08:33:00,
2013-07-06 03:38:00,70.1,61.8,29.97,South,177,0.0,1.2,75,0.00,FEW,,0.00,0.0,WeatherDisplay:10.37,2013-07-06 08:38:00,
2013-07-06 03:43:00,70.1,61.8,29.97,South,177,0.0,0.0,75,0.00,FEW,,0.00,0.0,WeatherDisplay:10.37,2013-07-06 08:43:00,
2013-07-06 03:48:00,69.9,61.6,29.97,South,172,0.0,0.0,75,0.00,FEW,,0.00,0.0,WeatherDisplay:10.37,2013-07-06 08:48:00,
2013-07-06 03:53:00,69.9,61.6,29.97,South,172,0.0,0.0,75,0.00,FEW,,0.00,0.0,WeatherDisplay:10.37,2013-07-06 08:53:00,
2013-07-06 03:58:00,69.6,61.7,29.97,South,172,0.0,0.0,76,0.00,FEW,,0.00,0.0,WeatherDisplay:10.37,2013-07-06 08:58:00,
2013-07-06 04:03:00,69.4,61.5,29.97,South,172,0.0,0.0,76,0.00,FEW,,0.00,0.0,WeatherDisplay:10.37,2013-07-06 09:03:00,
2013-07-06 04:08:00,69.1,61.6,29.97,South,172,0.0,0.0,77,0.00,FEW,,0.00,0.0,WeatherDisplay:10.37,2013-07-06 09:08:00,
2013-07-06 04:13:00,68.9,61.4,29.97,South,172,0.0,0.0,77,0.00,FEW,,0.00,0.0,WeatherDisplay:10.37,2013-07-06 09:13:00,
2013-07-06 04:18:00,68.6,61.1,29.97,South,172,0.0,0.0,77,0.00,FEW,,0.00,0.0,WeatherDisplay:10.37,2013-07-06 09:18:00,
2013-07-06 04:23:00,68.6,61.5,29.97,South,172,0.0,0.0,78,0.00,FEW,,0.00,0.0,WeatherDisplay:10.37,2013-07-06 09:23:00,
2013-07-06 04:28:00,68.4,61.3,29.97,South,172,0.0,0.0,78,0.00,FEW,,0.00,0.0,WeatherDisplay:10.37,2013-07-06 09:28:00,
2013-07-06 04:33:00,68.3,61.5,29.97,South,172,0.0,0.0,79,0.00,FEW,,0.00,0.0,WeatherDisplay:10.37,2013-07-06 09:33:00,
2013-07-06 04:38:00,67.9,61.1,29.97,South,172,0.0,0.0,79,0.00,FEW,,0.00,0.0,WeatherDisplay:10.37,2013-07-06 09:38:00,
2013-07-06 04:43:00,67.8,61.4,29.97,South,172,0.0,0.0,80,0.00,FEW,,0.00,0.0,WeatherDisplay:10.37,2013-07-06 09:43:00,
2013-07-06 04:48:00,67.6,61.2,29.97,South,172,0.0,0.0,80,0.00,FEW,,0.00,0.0,WeatherDisplay:10.37,2013-07-06 09:48:00,
2013-07-06 04:53:00,67.6,61.2,29.97,South,172,0.0,0.0,80,0.00,FEW,,0.00,0.0,WeatherDisplay:10.37,2013-07-06 09:53:00,
2013-07-06 04:58:00,67.4,61.0,29.97,South,172,0.0,0.0,80,0.00,FEW,,0.00,0.0,WeatherDisplay:10.37,2013-07-06 09:58:00,
2013-07-06 05:03:00,67.3,61.3,29.97,South,172,0.0,0.0,81,0.00,FEW,,0.00,0.0,WeatherDisplay:10.37,2013-07-06 10:03:00,
2013-07-06 05:08:00,67.3,61.3,29.97,South,172,0.0,0.0,81,0.00,FEW,,0.00,0.0,WeatherDisplay:10.37,2013-07-06 10:08:00,
2013-07-06 05:13:00,67.3,61.3,29.97,South,172,0.0,0.0,81,0.00,FEW,,0.00,0.0,WeatherDisplay:10.37,2013-07-06 10:13:00,
2013-07-06 05:18:00,67.4,61.4,29.97,South,172,0.0,0.0,81,0.00,FEW,,0.00,0.0,WeatherDisplay:10.37,2013-07-06 10:18:00,
2013-07-06 05:23:00,67.4,61.4,29.97,South,172,0.0,0.0,81,0.00,FEW,,0.00,0.0,WeatherDisplay:10.37,2013-07-06 10:23:00,
2013-07-06 05:28:00,67.4,61.4,29.97,South,172,0.0,0.0,81,0.00,FEW,,0.00,5.0,WeatherDisplay:10.37,2013-07-06 10:28:00,
2013-07-06 05:33:00,67.6,61.6,29.97,South,172,0.0,0.0,81,0.00,FEW,,0.00,7.0,WeatherDisplay:10.37,2013-07-06 10:33:00,
2013-07-06 05:38:00,67.8,61.4,29.97,South,172,0.0,0.0,80,0.00,FEW,,0.00,11.0,WeatherDisplay:10.37,2013-07-06 10:38:00,
2013-07-06 05:43:00,67.8,61.4,29.97,South,172,0.0,0.0,80,0.00,FEW,,0.00,14.0,WeatherDisplay:10.37,2013-07-06 10:43:00,
2013-07-06 05:48:00,67.6,61.2,29.97,South,172,0.0,0.0,80,0.00,FEW,,0.00,16.0,WeatherDisplay:10.37,2013-07-06 10:48:00,
2013-07-06 05:53:00,67.6,61.6,29.97,South,172,0.0,0.0,81,0.00,FEW,,0.00,19.0,WeatherDisplay:10.37,2013-07-06 10:53:00,
2013-07-06 05:58:00,67.8,61.8,29.97,South,172,0.0,0.0,81,0.00,FEW,,0.00,23.0,WeatherDisplay:10.37,2013-07-06 10:58:00,
2013-07-06 06:03:00,67.8,61.8,29.97,South,172,0.0,0.0,81,0.00,FEW,,0.00,26.0,WeatherDisplay:10.37,2013-07-06 11:03:00,
2013-07-06 06:08:00,67.8,61.8,29.97,South,172,0.0,0.0,81,0.00,FEW,,0.00,28.0,WeatherDisplay:10.37,2013-07-06 11:08:00,
2013-07-06 06:13:00,67.9,61.9,29.97,South,172,0.0,0.0,81,0.00,FEW,,0.00,33.0,WeatherDisplay:10.37,2013-07-06 11:13:00,
2013-07-06 06:18:00,68.3,61.9,29.97,South,172,0.0,0.0,80,0.00,FEW,,0.00,35.0,WeatherDisplay:10.37,2013-07-06 11:18:00,
2013-07-06 06:23:00,68.4,62.0,29.97,South,172,0.0,0.0,80,0.00,FEW,,0.00,37.0,WeatherDisplay:10.37,2013-07-06 11:23:00,
2013-07-06 06:28:00,68.6,62.2,29.97,South,172,0.0,0.0,80,0.00,FEW,,0.00,40.0,WeatherDisplay:10.37,2013-07-06 11:28:00,
2013-07-06 06:33:00,68.6,62.2,29.97,South,172,1.0,4.6,80,0.00,FEW,,0.00,42.0,WeatherDisplay:10.37,2013-07-06 11:33:00,
2013-07-06 06:38:00,68.8,62.4,29.97,South,172,1.6,4.6,80,0.00,FEW,,0.00,46.0,WeatherDisplay:10.37,2013-07-06 11:38:00,
2013-07-06 06:43:00,68.9,62.5,29.97,South,172,0.0,0.0,80,0.00,FEW,,0.00,51.0,WeatherDisplay:10.37,2013-07-06 11:43:00,
2013-07-06 06:48:00,69.1,62.7,29.97,South,172,0.0,0.0,80,0.00,FEW,,0.00,54.0,WeatherDisplay:10.37,2013-07-06 11:48:00,
2013-07-06 06:53:00,69.1,62.7,29.97,South,172,0.0,0.0,80,0.00,FEW,,0.00,134.0,WeatherDisplay:10.37,2013-07-06 11:53:00,
2013-07-06 06:58:00,69.3,62.5,29.97,South,172,0.0,0.0,79,0.00,FEW,,0.00,190.0,WeatherDisplay:10.37,2013-07-06 11:58:00,
2013-07-06 07:03:00,69.4,62.6,29.97,South,172,0.0,0.0,79,0.00,FEW,,0.00,206.0,WeatherDisplay:10.37,2013-07-06 12:03:00,
2013-07-06 07:08:00,69.8,63.0,29.97,South,172,0.0,0.0,79,0.00,FEW,,0.00,218.0,WeatherDisplay:10.37,2013-07-06 12:08:00,
2013-07-06 07:13:00,70.1,63.3,29.97,South,177,0.0,0.0,79,0.00,FEW,,0.00,234.0,WeatherDisplay:10.37,2013-07-06 12:13:00,
2013-07-06 07:18:00,70.3,63.1,29.97,South,177,0.0,1.2,78,0.00,FEW,,0.00,248.0,WeatherDisplay:10.37,2013-07-06 12:18:00,
2013-07-06 07:23:00,70.4,63.2,29.97,South,183,0.7,4.6,78,0.00,FEW,,0.00,264.0,WeatherDisplay:10.37,2013-07-06 12:23:00,
2013-07-06 07:28:00,70.6,63.4,29.97,South,181,0.9,4.6,78,0.00,FEW,,0.00,278.0,WeatherDisplay:10.37,2013-07-06 12:28:00,
2013-07-06 07:33:00,70.8,63.6,29.97,South,184,0.1,1.2,78,0.00,FEW,,0.00,290.0,WeatherDisplay:10.37,2013-07-06 12:33:00,
2013-07-06 07:38:00,70.9,63.3,29.97,South,186,0.2,2.3,77,0.00,FEW,,0.00,306.0,WeatherDisplay:10.37,2013-07-06 12:38:00,
2013-07-06 07:43:00,71.3,64.1,29.97,South,186,0.1,1.2,78,0.00,FEW,,0.00,322.0,WeatherDisplay:10.37,2013-07-06 12:43:00,
2013-07-06 07:48:00,71.5,63.9,29.97,SSW,195,0.2,1.2,77,0.00,FEW,,0.00,336.0,WeatherDisplay:10.37,2013-07-06 12:48:00,
2013-07-06 07:53:00,71.6,63.6,29.97,SSW,197,0.0,0.0,76,0.00,FEW,,0.00,350.0,WeatherDisplay:10.37,2013-07-06 12:53:00,
2013-07-06 07:58:00,72.0,64.0,29.97,South,190,0.6,2.3,76,0.00,FEW,,0.00,364.0,WeatherDisplay:10.37,2013-07-06 12:58:00,
2013-07-06 08:03:00,72.1,63.7,29.98,South,182,1.4,3.5,75,0.00,FEW,,0.00,378.0,WeatherDisplay:10.37,2013-07-06 13:03:00,
2013-07-06 08:08:00,72.5,64.5,29.98,South,190,1.7,8.1,76,0.00,FEW,,0.00,394.0,WeatherDisplay:10.37,2013-07-06 13:08:00,
2013-07-06 08:13:00,72.8,64.4,29.98,South,173,0.4,5.8,75,0.00,FEW,,0.00,410.0,WeatherDisplay:10.37,2013-07-06 13:13:00,
2013-07-06 08:18:00,72.8,64.0,29.98,SSE,165,2.1,9.2,74,0.00,FEW,,0.00,422.0,WeatherDisplay:10.37,2013-07-06 13:18:00,
2013-07-06 08:23:00,73.0,64.2,29.98,SE,136,0.1,1.2,74,0.00,FEW,,0.00,438.0,WeatherDisplay:10.37,2013-07-06 13:23:00,
2013-07-06 08:28:00,73.0,64.2,29.98,South,186,0.3,4.6,74,0.00,CLR,,0.00,452.0,WeatherDisplay:10.37,2013-07-06 13:28:00,
2013-07-06 08:33:00,73.2,64.8,29.98,SSW,204,0.0,0.0,75,0.00,CLR,,0.00,464.0,WeatherDisplay:10.37,2013-07-06 13:33:00,
2013-07-06 08:38:00,73.5,65.1,29.98,SSW,204,0.0,1.2,75,0.00,CLR,,0.00,476.0,WeatherDisplay:10.37,2013-07-06 13:38:00,
2013-07-06 08:43:00,73.7,64.9,29.98,South,184,3.2,9.2,74,0.00,CLR,,0.00,494.0,WeatherDisplay:10.37,2013-07-06 13:43:00,
2013-07-06 08:48:00,73.9,64.7,29.98,South,171,0.4,2.3,73,0.00,CLR,,0.00,510.0,WeatherDisplay:10.37,2013-07-06 13:48:00,
2013-07-06 08:53:00,74.0,64.8,29.98,South,169,1.5,5.8,73,0.00,CLR,,0.00,524.0,WeatherDisplay:10.37,2013-07-06 13:53:00,
2013-07-06 08:58:00,74.2,64.6,29.98,South,178,0.1,1.2,72,0.00,FEW,,0.00,536.0,WeatherDisplay:10.37,2013-07-06 13:58:00,
2013-07-06 09:03:00,74.6,65.4,29.98,South,186,1.1,4.8,73,0.00,FEW,,0.00,552.0,WeatherDisplay:10.37,2013-07-06 14:03:00,
2013-07-06 09:08:00,74.6,64.6,29.98,SSW,209,0.3,5.8,71,0.00,FEW,,0.00,563.0,WeatherDisplay:10.37,2013-07-06 14:08:00,
2013-07-06 09:13:00,75.1,65.5,29.98,South,189,0.1,2.3,72,0.00,FEW,,0.00,575.0,WeatherDisplay:10.37,2013-07-06 14:13:00,
2013-07-06 09:18:00,75.3,64.8,29.98,SSW,198,1.9,8.1,70,0.00,FEW,,0.00,587.0,WeatherDisplay:10.37,2013-07-06 14:18:00,
2013-07-06 09:23:00,75.6,65.5,29.98,SSW,198,0.0,1.2,71,0.00,FEW,,0.00,599.0,WeatherDisplay:10.37,2013-07-06 14:23:00,
2013-07-06 09:28:00,76.1,65.6,29.98,SSW,198,0.0,0.0,70,0.00,FEW,,0.00,615.0,WeatherDisplay:10.37,2013-07-06 14:28:00,
2013-07-06 09:33:00,76.5,65.1,29.98,SSW,193,0.0,1.2,68,0.00,FEW,,0.00,626.0,WeatherDisplay:10.37,2013-07-06 14:33:00,
2013-07-06 09:38:00,76.5,64.7,29.98,SSE,168,2.0,5.8,67,0.00,FEW,,0.00,640.0,WeatherDisplay:10.37,2013-07-06 14:38:00,
2013-07-06 09:43:00,76.8,65.9,29.98,South,184,0.0,1.2,69,0.00,FEW,,0.00,652.0,WeatherDisplay:10.37,2013-07-06 14:43:00,
2013-07-06 09:48:00,76.8,65.0,29.98,SSW,194,4.1,8.1,67,0.00,FEW,,0.00,664.0,WeatherDisplay:10.37,2013-07-06 14:48:00,
2013-07-06 09:53:00,77.0,64.8,29.98,SSW,205,1.4,9.6,66,0.00,FEW,,0.00,679.0,WeatherDisplay:10.37,2013-07-06 14:53:00,
2013-07-06 09:58:00,77.4,65.1,29.98,SSW,213,1.1,8.1,66,0.00,FEW,,0.00,689.0,WeatherDisplay:10.37,2013-07-06 14:58:00,
2013-07-06 10:03:00,77.7,64.5,29.98,SSW,195,0.2,1.2,64,0.00,FEW,,0.00,696.0,WeatherDisplay:10.37,2013-07-06 15:03:00,
2013-07-06 10:08:00,78.3,66.0,29.98,South,186,1.7,6.0,66,0.00,FEW,,0.00,708.0,WeatherDisplay:10.37,2013-07-06 15:08:00,
2013-07-06 10:13:00,77.9,64.7,29.98,South,178,1.6,5.8,64,0.00,FEW,,0.00,721.0,WeatherDisplay:10.37,2013-07-06 15:13:00,
2013-07-06 10:18:00,78.5,65.3,29.98,South,178,2.3,5.8,64,0.00,FEW,,0.00,729.0,WeatherDisplay:10.37,2013-07-06 15:18:00,
2013-07-06 10:23:00,78.5,65.3,29.98,South,178,1.0,4.6,64,0.00,FEW,,0.00,742.0,WeatherDisplay:10.37,2013-07-06 15:23:00,
2013-07-06 10:28:00,78.6,64.9,29.98,SSW,205,5.8,6.9,63,0.00,FEW,,0.00,754.0,WeatherDisplay:10.37,2013-07-06 15:28:00,
2013-07-06 10:33:00,78.8,65.6,29.97,SSW,200,0.0,0.0,64,0.00,FEW,,0.00,761.0,WeatherDisplay:10.37,2013-07-06 15:33:00,
2013-07-06 10:38:00,79.2,65.5,29.97,SSW,196,3.4,8.1,63,0.00,FEW,,0.00,768.0,WeatherDisplay:10.37,2013-07-06 15:38:00,
2013-07-06 10:43:00,79.2,65.5,29.97,South,174,3.4,7.2,63,0.00,FEW,,0.00,784.0,WeatherDisplay:10.37,2013-07-06 15:43:00,
2013-07-06 10:48:00,79.6,66.3,29.97,SSW,206,0.0,3.5,64,0.00,FEW,,0.00,789.0,WeatherDisplay:10.37,2013-07-06 15:48:00,
2013-07-06 10:53:00,79.8,66.1,29.97,South,188,1.2,6.9,63,0.00,FEW,,0.00,798.0,WeatherDisplay:10.37,2013-07-06 15:53:00,
2013-07-06 10:58:00,79.9,65.7,29.97,South,170,0.3,6.0,62,0.00,FEW,,0.00,807.0,WeatherDisplay:10.37,2013-07-06 15:58:00,
2013-07-06 11:03:00,79.9,65.7,29.97,South,169,1.3,5.8,62,0.00,FEW,,0.00,819.0,WeatherDisplay:10.37,2013-07-06 16:03:00,
2013-07-06 11:08:00,80.1,65.0,29.97,SSW,192,2.2,6.9,60,0.00,FEW,,0.00,821.0,WeatherDisplay:10.37,2013-07-06 16:08:00,
2013-07-06 11:13:00,80.3,65.6,29.97,SSW,195,5.0,9.6,61,0.00,FEW,,0.00,831.0,WeatherDisplay:10.37,2013-07-06 16:13:00,
2013-07-06 11:18:00,80.3,65.1,29.97,SSE,165,3.5,6.0,60,0.00,FEW,,0.00,831.0,WeatherDisplay:10.37,2013-07-06 16:18:00,
2013-07-06 11:23:00,80.3,65.1,29.97,SSW,208,1.5,6.9,60,0.00,FEW,,0.00,842.0,WeatherDisplay:10.37,2013-07-06 16:23:00,
2013-07-06 11:30:00,81.2,66.0,29.97,South,180,0.0,7.2,60,0.00,FEW,,0.00,846.0,WeatherDisplay:10.37,2013-07-06 16:30:00,
2013-07-06 11:35:00,82.0,66.3,29.97,South,191,1.2,3.6,59,0.00,FEW,,0.00,863.0,WeatherDisplay:10.37,2013-07-06 16:35:00,
2013-07-06 11:41:00,82.0,66.3,29.97,South,172,0.0,5.8,59,0.00,FEW,,0.00,861.0,WeatherDisplay:10.37,2013-07-06 16:41:00,
2013-07-06 11:46:00,82.2,65.4,29.97,SSW,212,0.1,3.5,57,0.00,SCT,,0.00,863.0,WeatherDisplay:10.37,2013-07-06 16:46:00,
2013-07-06 11:52:00,82.8,66.5,29.97,South,177,0.4,9.6,58,0.00,SCT,,0.00,881.0,WeatherDisplay:10.37,2013-07-06 16:52:00,
2013-07-06 11:57:00,83.2,66.9,29.97,South,179,2.0,7.0,58,0.00,SCT,,0.00,882.0,WeatherDisplay:10.37,2013-07-06 16:57:00,
2013-07-06 12:02:00,83.0,66.2,29.97,SSE,165,0.0,1.2,57,0.00,SCT,,0.00,881.0,WeatherDisplay:10.37,2013-07-06 17:02:00,
2013-07-06 12:07:00,82.8,65.5,29.97,South,172,4.2,8.4,56,0.00,SCT,,0.00,893.0,WeatherDisplay:10.37,2013-07-06 17:07:00,
2013-07-06 12:13:00,82.8,65.5,29.97,South,177,4.4,6.0,56,0.00,SCT,,0.00,893.0,WeatherDisplay:10.37,2013-07-06 17:13:00,
2013-07-06 12:18:00,83.0,64.6,29.96,South,171,1.6,6.9,54,0.00,SCT,,0.00,898.0,WeatherDisplay:10.37,2013-07-06 17:18:00,
2013-07-06 12:24:00,83.8,66.9,29.96,SSW,195,0.6,5.8,57,0.00,SCT,,0.00,898.0,WeatherDisplay:10.37,2013-07-06 17:24:00,
2013-07-06 12:30:00,83.2,64.8,29.96,South,174,5.9,12.0,54,0.00,SCT,,0.00,905.0,WeatherDisplay:10.37,2013-07-06 17:30:00,
2013-07-06 12:35:00,83.2,64.3,29.96,South,186,3.2,7.2,53,0.00,SCT,,0.00,905.0,WeatherDisplay:10.37,2013-07-06 17:35:00,
2013-07-06 12:40:00,83.6,65.2,29.96,South,180,3.7,9.6,54,0.00,SCT,,0.00,907.0,WeatherDisplay:10.37,2013-07-06 17:40:00,
2013-07-06 12:46:00,83.4,63.9,29.96,South,186,1.4,10.4,52,0.00,SCT,,0.00,911.0,WeatherDisplay:10.37,2013-07-06 17:46:00,
2013-07-06 12:51:00,84.3,66.4,29.96,South,173,0.1,1.2,55,0.00,SCT,,0.00,911.0,WeatherDisplay:10.37,2013-07-06 17:51:00,
2013-07-06 12:57:00,84.4,64.8,29.96,SSW,201,2.0,8.0,52,0.00,SCT,,0.00,923.0,WeatherDisplay:10.37,2013-07-06 17:57:00,
2013-07-06 13:02:00,84.5,65.5,29.96,SSE,160,2.1,8.1,53,0.00,SCT,,0.00,916.0,WeatherDisplay:10.37,2013-07-06 18:02:00,
2013-07-06 13:07:00,84.3,65.8,29.96,South,182,0.0,3.5,54,0.00,SCT,,0.00,911.0,WeatherDisplay:10.37,2013-07-06 18:07:00,
2013-07-06 13:12:00,84.1,66.2,29.96,South,175,1.9,5.8,55,0.00,SCT,,0.00,900.0,WeatherDisplay:10.37,2013-07-06 18:12:00,
2013-07-06 13:18:00,84.3,63.6,29.95,South,176,6.2,16.1,50,0.00,SCT,,0.00,902.0,WeatherDisplay:10.37,2013-07-06 18:18:00,
2013-07-06 13:23:00,84.3,64.2,29.95,South,184,0.6,3.6,51,0.00,SCT,,0.00,907.0,WeatherDisplay:10.37,2013-07-06 18:23:00,
2013-07-06 13:28:00,84.5,64.9,29.95,South,183,0.6,2.4,52,0.00,SCT,,0.00,898.0,WeatherDisplay:10.37,2013-07-06 18:28:00,
2013-07-06 13:33:00,84.7,64.0,29.95,South,184,0.1,3.5,50,0.00,SCT,,0.00,893.0,WeatherDisplay:10.37,2013-07-06 18:33:00,
2013-07-06 13:39:00,84.9,64.2,29.95,SSW,192,2.1,6.9,50,0.00,SCT,,0.00,889.0,WeatherDisplay:10.37,2013-07-06 18:39:00,
2013-07-06 13:44:00,85.5,65.3,29.95,South,184,0.1,4.6,51,0.00,SCT,,0.00,893.0,WeatherDisplay:10.37,2013-07-06 18:44:00,
2013-07-06 13:49:00,85.9,65.1,29.95,SSW,207,1.7,7.2,50,0.00,SCT,,0.00,888.0,WeatherDisplay:10.37,2013-07-06 18:49:00,
2013-07-06 13:55:00,85.7,64.9,29.95,South,181,3.4,7.2,50,0.00,SCT,,0.00,867.0,WeatherDisplay:10.37,2013-07-06 18:55:00,
2013-07-06 14:00:00,86.1,67.0,29.95,SSE,153,2.5,4.8,53,0.00,SCT,,0.00,877.0,WeatherDisplay:10.37,2013-07-06 19:00:00,
2013-07-06 14:05:00,85.5,64.7,29.95,South,176,7.4,10.4,50,0.00,SCT,,0.00,874.0,WeatherDisplay:10.37,2013-07-06 19:05:00,
2013-07-06 14:11:00,85.3,64.6,29.95,SSW,207,2.6,5.8,50,0.00,SCT,,0.00,872.0,WeatherDisplay:10.37,2013-07-06 19:11:00,
2013-07-06 14:16:00,85.9,65.1,29.95,South,179,1.2,4.8,50,0.00,SCT,,0.00,860.0,WeatherDisplay:10.37,2013-07-06 19:16:00,
2013-07-06 14:21:00,85.3,64.6,29.95,South,176,6.5,11.5,50,0.00,SCT,,0.00,861.0,WeatherDisplay:10.37,2013-07-06 19:21:00,
2013-07-06 14:27:00,85.1,64.9,29.95,South,184,0.5,5.8,51,0.00,SCT,,0.00,854.0,WeatherDisplay:10.37,2013-07-06 19:27:00,
2013-07-06 14:32:00,84.9,64.2,29.95,SSW,192,5.0,10.0,50,0.00,FEW,,0.00,877.0,WeatherDisplay:10.37,2013-07-06 19:32:00,
2013-07-06 14:37:00,85.1,65.5,29.95,South,180,0.0,2.3,52,0.00,FEW,,0.00,837.0,WeatherDisplay:10.37,2013-07-06 19:37:00,
2013-07-06 14:42:00,86.1,66.4,29.95,South,169,0.1,1.2,52,0.00,SCT,,0.00,835.0,WeatherDisplay:10.37,2013-07-06 19:42:00,
2013-07-06 14:47:00,86.5,64.5,29.95,South,170,6.6,8.1,48,0.00,SCT,,0.00,838.0,WeatherDisplay:10.37,2013-07-06 19:47:00,
2013-07-06 14:52:00,85.9,65.7,29.95,South,180,5.2,7.2,51,0.00,SCT,,0.00,816.0,WeatherDisplay:10.37,2013-07-06 19:52:00,
2013-07-06 14:58:00,86.1,65.3,29.95,South,175,0.0,5.8,50,0.00,SCT,,0.00,807.0,WeatherDisplay:10.37,2013-07-06 19:58:00,
2013-07-06 15:03:00,85.7,64.9,29.95,South,182,0.9,9.2,50,0.00,SCT,,0.00,800.0,WeatherDisplay:10.37,2013-07-06 20:03:00,
2013-07-06 15:08:00,86.5,65.1,29.95,South,184,3.3,5.8,49,0.00,SCT,,0.00,788.0,WeatherDisplay:10.37,2013-07-06 20:08:00,
2013-07-06 15:13:00,86.5,64.5,29.95,South,172,2.4,6.9,48,0.00,SCT,,0.00,789.0,WeatherDisplay:10.37,2013-07-06 20:13:00,
2013-07-06 15:18:00,86.5,63.9,29.95,SSE,163,0.1,5.8,47,0.00,SCT,,0.00,768.0,WeatherDisplay:10.37,2013-07-06 20:18:00,
2013-07-06 15:23:00,86.7,65.8,29.95,SSW,200,0.8,4.8,50,0.00,SCT,,0.00,756.0,WeatherDisplay:10.37,2013-07-06 20:23:00,
2013-07-06 15:28:00,86.1,65.3,29.95,South,190,0.0,1.2,50,0.00,SCT,,0.00,759.0,WeatherDisplay:10.37,2013-07-06 20:28:00,
2013-07-06 15:34:00,86.5,64.5,29.94,SSW,192,0.1,0.0,48,0.00,FEW,,0.00,742.0,WeatherDisplay:10.37,2013-07-06 20:34:00,
2013-07-06 15:39:00,87.4,67.1,29.94,SSW,204,5.5,6.9,51,0.00,SCT,,0.00,733.0,WeatherDisplay:10.37,2013-07-06 20:39:00,
2013-07-06 15:44:00,86.3,63.7,29.94,South,171,0.1,1.2,47,0.00,FEW,,0.00,717.0,WeatherDisplay:10.37,2013-07-06 20:44:00,
2013-07-06 15:49:00,86.3,64.9,29.94,South,180,0.1,6.9,49,0.00,SCT,,0.00,705.0,WeatherDisplay:10.37,2013-07-06 20:49:00,
2013-07-06 15:55:00,86.3,65.5,29.94,South,183,0.6,4.6,50,0.00,FEW,,0.00,705.0,WeatherDisplay:10.37,2013-07-06 20:55:00,
2013-07-06 16:00:00,86.1,65.9,29.94,SSW,203,0.3,8.4,51,0.00,FEW,,0.00,684.0,WeatherDisplay:10.37,2013-07-06 21:00:00,
2013-07-06 16:05:00,86.1,63.5,29.94,SSE,149,8.4,11.5,47,0.00,FEW,,0.00,679.0,WeatherDisplay:10.37,2013-07-06 21:05:00,
2013-07-06 16:10:00,86.1,64.1,29.94,SSW,212,5.8,9.2,48,0.00,FEW,,0.00,663.0,WeatherDisplay:10.37,2013-07-06 21:10:00,
2013-07-06 16:15:00,86.1,65.3,29.94,South,188,0.1,3.5,50,0.00,FEW,,0.00,682.0,WeatherDisplay:10.37,2013-07-06 21:15:00,
2013-07-06 16:21:00,86.5,64.5,29.94,SSW,206,7.8,9.6,48,0.00,FEW,,0.00,645.0,WeatherDisplay:10.37,2013-07-06 21:21:00,
2013-07-06 16:27:00,85.7,64.3,29.94,South,182,3.2,8.4,49,0.00,SCT,,0.00,524.0,WeatherDisplay:10.37,2013-07-06 21:27:00,
2013-07-06 16:32:00,86.1,64.7,29.94,SSW,195,4.7,12.0,49,0.00,FEW,,0.00,619.0,WeatherDisplay:10.37,2013-07-06 21:32:00,
2013-07-06 16:37:00,86.1,65.3,29.94,South,182,3.3,5.8,50,0.00,FEW,,0.00,626.0,WeatherDisplay:10.37,2013-07-06 21:37:00,
2013-07-06 16:42:00,86.3,65.5,29.94,South,180,3.6,7.2,50,0.00,SCT,,0.00,260.0,WeatherDisplay:10.37,2013-07-06 21:42:00,
2013-07-06 16:48:00,85.9,66.2,29.94,South,172,0.2,1.2,52,0.00,SCT,,0.00,594.0,WeatherDisplay:10.37,2013-07-06 21:48:00,
2013-07-06 16:53:00,85.9,65.1,29.94,South,174,1.1,2.4,50,0.00,FEW,,0.00,563.0,WeatherDisplay:10.37,2013-07-06 21:53:00,
2013-07-06 16:58:00,85.9,65.1,29.94,South,180,0.0,1.2,50,0.00,FEW,,0.00,536.0,WeatherDisplay:10.37,2013-07-06 21:58:00,
2013-07-06 17:03:00,86.1,64.7,29.93,South,174,0.6,5.8,49,0.00,FEW,,0.00,531.0,WeatherDisplay:10.37,2013-07-06 22:03:00,
2013-07-06 17:08:00,85.7,64.9,29.93,South,182,1.3,10.4,50,0.00,FEW,,0.00,506.0,WeatherDisplay:10.37,2013-07-06 22:08:00,
2013-07-06 17:13:00,85.9,65.7,29.93,South,176,0.1,1.2,51,0.00,FEW,,0.00,482.0,WeatherDisplay:10.37,2013-07-06 22:13:00,
2013-07-06 17:20:00,85.7,64.9,29.93,South,184,0.8,6.0,50,0.00,FEW,,0.00,471.0,WeatherDisplay:10.37,2013-07-06 22:20:00,
2013-07-06 17:25:00,85.7,64.9,29.93,South,175,0.1,2.3,50,0.00,FEW,,0.00,450.0,WeatherDisplay:10.37,2013-07-06 22:25:00,
2013-07-06 17:31:00,85.7,64.9,29.93,South,173,2.6,7.2,50,0.00,FEW,,0.00,434.0,WeatherDisplay:10.37,2013-07-06 22:31:00,
2013-07-06 17:36:00,85.7,64.9,29.93,South,176,0.6,4.6,50,0.00,SCT,,0.00,417.0,WeatherDisplay:10.37,2013-07-06 22:36:00,
2013-07-06 17:41:00,85.5,64.7,29.93,South,183,2.0,8.1,50,0.00,SCT,,0.00,397.0,WeatherDisplay:10.37,2013-07-06 22:41:00,
2013-07-06 17:46:00,85.7,64.9,29.92,South,182,2.7,4.6,50,0.00,SCT,,0.00,387.0,WeatherDisplay:10.37,2013-07-06 22:46:00,
2013-07-06 17:51:00,85.5,64.7,29.92,South,170,2.2,8.1,50,0.00,SCT,,0.00,376.0,WeatherDisplay:10.37,2013-07-06 22:51:00,
2013-07-06 17:56:00,85.3,65.7,29.92,SSW,194,2.4,7.2,52,0.00,SCT,,0.00,366.0,WeatherDisplay:10.37,2013-07-06 22:56:00,
2013-07-06 18:01:00,85.3,64.0,29.92,South,172,4.3,9.2,49,0.00,SCT,,0.00,343.0,WeatherDisplay:10.37,2013-07-06 23:01:00,
2013-07-06 18:06:00,85.1,64.4,29.92,SSE,161,3.8,9.6,50,0.00,SCT,,0.00,329.0,WeatherDisplay:10.37,2013-07-06 23:06:00,
2013-07-06 18:11:00,85.1,64.9,29.92,SSW,199,0.1,1.2,51,0.00,SCT,,0.00,313.0,WeatherDisplay:10.37,2013-07-06 23:11:00,
2013-07-06 18:17:00,85.1,63.8,29.92,South,182,1.8,6.9,49,0.00,SCT,,0.00,302.0,WeatherDisplay:10.37,2013-07-06 23:17:00,
2013-07-06 18:22:00,84.9,64.8,29.92,South,180,1.2,8.1,51,0.00,SCT,,0.00,285.0,WeatherDisplay:10.37,2013-07-06 23:22:00,
2013-07-06 18:27:00,84.9,64.8,29.92,South,172,2.0,7.0,51,0.00,SCT,,0.00,271.0,WeatherDisplay:10.37,2013-07-06 23:27:00,
2013-07-06 18:32:00,84.7,64.6,29.91,SSE,157,0.0,7.0,51,0.00,SCT,,0.00,257.0,WeatherDisplay:10.37,2013-07-06 23:32:00,
2013-07-06 18:37:00,84.3,64.2,29.91,South,170,1.0,6.0,51,0.00,SCT,,0.00,244.0,WeatherDisplay:10.37,2013-07-06 23:37:00,
2013-07-06 18:42:00,84.1,65.1,29.91,SSE,150,1.1,7.2,53,0.00,SCT,,0.00,229.0,WeatherDisplay:10.37,2013-07-06 23:42:00,
2013-07-06 18:47:00,84.1,65.1,29.92,South,174,0.0,1.2,53,0.00,SCT,,0.00,216.0,WeatherDisplay:10.37,2013-07-06 23:47:00,
2013-07-06 18:52:00,84.1,64.6,29.92,South,173,0.0,8.1,52,0.00,SCT,,0.00,202.0,WeatherDisplay:10.37,2013-07-06 23:52:00,
2013-07-06 18:57:00,84.0,65.0,29.92,South,184,0.0,1.2,53,0.00,SCT,,0.00,186.0,WeatherDisplay:10.37,2013-07-06 23:57:00,
2013-07-06 19:03:00,83.8,65.4,29.92,SSE,165,1.4,4.8,54,0.00,SCT,,0.00,174.0,WeatherDisplay:10.37,2013-07-07 00:03:00,
2013-07-06 19:08:00,83.6,66.2,29.92,South,181,0.0,6.9,56,0.00,SCT,,0.00,162.0,WeatherDisplay:10.37,2013-07-07 00:08:00,
2013-07-06 19:13:00,83.4,65.5,29.92,South,188,1.0,6.0,55,0.00,SCT,,0.00,149.0,WeatherDisplay:10.37,2013-07-07 00:13:00,
2013-07-06 19:19:00,83.2,65.4,29.91,South,178,2.5,8.1,55,0.00,SCT,,0.00,135.0,WeatherDisplay:10.37,2013-07-07 00:19:00,
2013-07-06 19:24:00,83.0,66.2,29.91,South,178,0.0,0.0,57,0.00,SCT,,0.00,47.0,WeatherDisplay:10.37,2013-07-07 00:24:00,
2013-07-06 19:30:00,82.8,66.0,29.91,South,178,0.8,5.8,57,0.00,SCT,,0.00,40.0,WeatherDisplay:10.37,2013-07-07 00:30:00,
2013-07-06 19:35:00,82.4,66.1,29.91,SSE,167,0.9,8.4,58,0.00,SCT,,0.00,39.0,WeatherDisplay:10.37,2013-07-07 00:35:00,
2013-07-06 19:40:00,82.2,66.4,29.91,South,178,0.0,0.0,59,0.00,SCT,,0.00,37.0,WeatherDisplay:10.37,2013-07-07 00:40:00,
2013-07-06 19:46:00,82.0,66.3,29.92,South,178,1.0,5.8,59,0.00,SCT,,0.00,33.0,WeatherDisplay:10.37,2013-07-07 00:46:00,
2013-07-06 19:51:00,81.6,66.4,29.92,South,178,0.0,1.2,60,0.00,SCT,,0.00,32.0,WeatherDisplay:10.37,2013-07-07 00:51:00,
2013-07-06 19:56:00,81.4,66.7,29.92,South,178,0.1,1.2,61,0.00,SCT,,0.00,28.0,WeatherDisplay:10.37,2013-07-07 00:56:00,
2013-07-06 20:02:00,81.1,66.4,29.92,South,178,0.0,0.0,61,0.00,SCT,,0.00,25.0,WeatherDisplay:10.37,2013-07-07 01:02:00,
2013-07-06 20:08:00,80.9,66.2,29.92,South,178,0.0,1.2,61,0.00,SCT,,0.00,21.0,WeatherDisplay:10.37,2013-07-07 01:08:00,
2013-07-06 20:13:00,80.7,66.5,29.92,South,178,0.0,1.2,62,0.00,SCT,,0.00,19.0,WeatherDisplay:10.37,2013-07-07 01:13:00,
2013-07-06 20:18:00,80.5,66.3,29.92,South,178,0.0,0.0,62,0.00,SCT,,0.00,16.0,WeatherDisplay:10.37,2013-07-07 01:18:00,
2013-07-06 20:23:00,80.3,66.1,29.92,South,178,0.0,1.2,62,0.00,SCT,,0.00,12.0,WeatherDisplay:10.37,2013-07-07 01:23:00,
2013-07-06 20:29:00,79.9,66.2,29.92,South,178,0.0,0.0,63,0.00,SCT,,0.00,9.0,WeatherDisplay:10.37,2013-07-07 01:29:00,
2013-07-06 20:34:00,79.8,66.1,29.92,South,178,0.0,0.0,63,0.00,SCT,,0.00,7.0,WeatherDisplay:10.37,2013-07-07 01:34:00,
2013-07-06 20:39:00,79.4,66.2,29.92,South,178,0.0,0.0,64,0.00,SCT,,0.00,0.0,WeatherDisplay:10.37,2013-07-07 01:39:00,
2013-07-06 20:46:00,79.0,66.2,29.92,South,178,0.0,1.2,65,0.00,SCT,,0.00,0.0,WeatherDisplay:10.37,2013-07-07 01:46:00,
2013-07-06 20:52:00,78.8,66.0,29.92,South,178,0.0,0.0,65,0.00,SCT,,0.00,0.0,WeatherDisplay:10.37,2013-07-07 01:52:00,
2013-07-06 20:57:00,78.5,66.2,29.92,South,178,0.0,0.0,66,0.00,SCT,,0.00,0.0,WeatherDisplay:10.37,2013-07-07 01:57:00,
2013-07-06 21:02:00,78.3,66.0,29.92,South,178,0.0,0.0,66,0.00,SCT,,0.00,0.0,WeatherDisplay:10.37,2013-07-07 02:02:00,
2013-07-06 21:08:00,78.1,65.8,29.92,South,178,0.0,0.0,66,0.00,SCT,,0.00,0.0,WeatherDisplay:10.37,2013-07-07 02:08:00,
2013-07-06 21:13:00,77.9,66.1,29.92,South,178,0.0,0.0,67,0.00,SCT,,0.00,0.0,WeatherDisplay:10.37,2013-07-07 02:13:00,
2013-07-06 21:19:00,77.6,65.8,29.93,South,178,0.0,0.0,67,0.00,SCT,,0.00,0.0,WeatherDisplay:10.37,2013-07-07 02:19:00,
2013-07-06 21:25:00,77.4,66.0,29.93,South,178,0.0,0.0,68,0.00,SCT,,0.00,0.0,WeatherDisplay:10.37,2013-07-07 02:25:00,
2013-07-06 21:30:00,77.2,66.2,29.93,South,178,0.0,0.0,69,0.00,SCT,,0.00,0.0,WeatherDisplay:10.37,2013-07-07 02:30:00,
2013-07-06 21:35:00,76.8,65.9,29.93,South,178,0.0,0.0,69,0.00,SCT,,0.00,0.0,WeatherDisplay:10.37,2013-07-07 02:35:00,
2013-07-06 21:40:00,76.5,66.0,29.93,South,178,0.0,0.0,70,0.00,SCT,,0.00,0.0,WeatherDisplay:10.37,2013-07-07 02:40:00,
2013-07-06 21:45:00,76.3,65.8,29.94,South,178,0.0,0.0,70,0.00,SCT,,0.00,0.0,WeatherDisplay:10.37,2013-07-07 02:45:00,
2013-07-06 21:51:00,76.0,65.9,29.94,South,178,0.0,0.0,71,0.00,SCT,,0.00,0.0,WeatherDisplay:10.37,2013-07-07 02:51:00,
2013-07-06 21:57:00,76.0,65.9,29.94,South,178,0.0,0.0,71,0.00,SCT,,0.00,0.0,WeatherDisplay:10.37,2013-07-07 02:57:00,
2013-07-06 22:02:00,76.0,65.9,29.94,South,178,0.0,0.0,71,0.00,SCT,,0.00,0.0,WeatherDisplay:10.37,2013-07-07 03:02:00,
2013-07-06 22:07:00,76.1,66.0,29.94,South,178,0.0,0.0,71,0.00,SCT,,0.00,0.0,WeatherDisplay:10.37,2013-07-07 03:07:00,
2013-07-06 22:12:00,76.1,66.0,29.94,South,178,0.0,0.0,71,0.00,SCT,,0.00,0.0,WeatherDisplay:10.37,2013-07-07 03:12:00,
2013-07-06 22:17:00,76.0,65.9,29.95,South,178,0.0,0.0,71,0.00,SCT,,0.00,0.0,WeatherDisplay:10.37,2013-07-07 03:17:00,
2013-07-06 22:22:00,76.0,65.5,29.95,South,178,0.0,0.0,70,0.00,SCT,,0.00,0.0,WeatherDisplay:10.37,2013-07-07 03:22:00,
2013-07-06 22:28:00,76.0,65.5,29.95,South,178,0.0,4.6,70,0.00,SCT,,0.00,0.0,WeatherDisplay:10.37,2013-07-07 03:28:00,
2013-07-06 22:34:00,76.0,65.5,29.95,South,178,0.0,1.2,70,0.00,SCT,,0.00,0.0,WeatherDisplay:10.37,2013-07-07 03:34:00,
2013-07-06 22:39:00,75.8,65.3,29.95,South,178,0.0,1.2,70,0.00,SCT,,0.00,0.0,WeatherDisplay:10.37,2013-07-07 03:39:00,
2013-07-06 22:44:00,75.6,65.5,29.94,South,178,0.0,0.0,71,0.00,SCT,,0.00,0.0,WeatherDisplay:10.37,2013-07-07 03:44:00,
2013-07-06 22:50:00,75.4,65.3,29.94,South,178,0.0,0.0,71,0.00,SCT,,0.00,0.0,WeatherDisplay:10.37,2013-07-07 03:50:00,
2013-07-06 22:55:00,75.3,65.2,29.94,South,178,0.0,1.2,71,0.00,SCT,,0.00,0.0,WeatherDisplay:10.37,2013-07-07 03:55:00,
2013-07-06 23:00:00,75.1,65.1,29.94,South,178,0.0,0.0,71,0.00,SCT,,0.00,0.0,WeatherDisplay:10.37,2013-07-07 04:00:00,
2013-07-06 23:01:00,75.1,65.1,29.94,South,178,0.0,0.0,71,0.00,SCT,,0.00,0.0,WeatherDisplay:10.37,2013-07-07 04:01:00,
2013-07-06 23:06:00,75.1,65.5,29.94,South,178,0.0,0.0,72,0.00,SCT,,0.00,0.0,WeatherDisplay:10.37,2013-07-07 04:06:00,
2013-07-06 23:11:00,75.1,65.5,29.94,South,178,0.0,0.0,72,0.00,SCT,,0.00,0.0,WeatherDisplay:10.37,2013-07-07 04:11:00,
2013-07-06 23:16:00,75.1,65.5,29.94,South,178,0.4,1.2,72,0.00,SCT,,0.00,0.0,WeatherDisplay:10.37,2013-07-07 04:16:00,
2013-07-06 23:21:00,74.9,65.3,29.94,South,178,0.0,1.2,72,0.00,SCT,,0.00,0.0,WeatherDisplay:10.37,2013-07-07 04:21:00,
2013-07-06 23:26:00,74.9,65.7,29.94,South,178,0.0,0.0,73,0.00,SCT,,0.00,0.0,WeatherDisplay:10.37,2013-07-07 04:26:00,
2013-07-06 23:31:00,74.7,65.5,29.93,South,178,0.0,0.0,73,0.00,SCT,,0.00,0.0,WeatherDisplay:10.37,2013-07-07 04:31:00,
2013-07-06 23:36:00,74.7,65.5,29.93,South,178,0.0,0.0,73,0.00,SCT,,0.00,0.0,WeatherDisplay:10.37,2013-07-07 04:36:00,
2013-07-06 23:41:00,74.6,65.4,29.93,South,178,0.0,1.2,73,0.00,SCT,,0.00,0.0,WeatherDisplay:10.37,2013-07-07 04:41:00,
2013-07-06 23:46:00,74.6,65.4,29.93,South,178,0.0,0.0,73,0.00,SCT,,0.00,0.0,WeatherDisplay:10.37,2013-07-07 04:46:00,
2013-07-06 23:51:00,74.6,65.8,29.93,South,178,0.0,0.0,74,0.00,SCT,,0.00,0.0,WeatherDisplay:10.37,2013-07-07 04:51:00,
2013-07-06 23:56:00,74.6,65.4,29.93,South,178,0.2,2.3,73,0.00,SCT,,0.00,0.0,WeatherDisplay:10.37,2013-07-07 04:56:00,